Theta_e
332 332 332 333 334 334 334 334 334 333 333 334 335 335 334 332 330 329 328 326 326 325 324 323 322 321 321 320 320 320 320 320 320 319 318 318 317 315 314 313 312 311 310 309 308 308 308 308 308 309 309 309 309 309 309 309 310 310 310 310 309 309 310 310 312 312 311 310 310 310 309 310 311 311 310 312 314 315 316 316 316 317 318 318 318
332 332 331 332 334 334 334 333 333 333 333 333 333 333 332 330 329 328 327 325 325 324 323 322 321 321 320 320 319 319 319 318 318 318 317 317 315 315 314 313 312 310 310 309 308 308 308 308 308 308 309 309 309 309 309 308 308 308 308 308 308 308 309 309 310 310 310 310 309 309 309 309 309 309 309 310 312 313 314 314 314 315 315 315 315
332 331 330 331 332 333 333 332 332 332 332 331 331 330 329 328 327 327 326 324 323 322 322 321 320 320 320 319 318 318 318 317 317 317 316 315 314 314 313 312 311 310 309 309 308 308 308 308 308 308 309 309 309 309 309 309 309 308 308 308 308 308 308 308 308 309 309 309 308 308 308 308 308 308 308 309 311 312 312 312 311 312 312 312 312
332 331 331 331 330 331 332 331 331 331 330 330 329 328 327 326 326 325 324 323 322 321 321 320 320 320 319 318 318 317 317 316 316 315 315 314 313 312 312 311 311 310 309 309 308 307 307 307 307 307 308 308 308 308 309 309 308 308 308 307 306 307 307 307 307 308 308 308 308 307 307 307 307 308 308 309 310 311 312 311 310 310 311 311 310
332 331 331 330 329 329 330 330 330 330 329 328 327 326 326 325 324 324 323 322 321 321 320 320 319 319 318 318 317 316 316 315 315 315 314 313 312 311 311 310 310 310 310 309 308 307 306 306 305 306 306 307 307 307 307 308 308 308 307 306 305 306 306 306 306 307 307 306 306 306 306 306 307 307 307 307 307 308 309 310 308 308 309 309 310
331 330 329 328 329 329 329 329 329 329 328 327 326 325 324 323 323 322 322 321 320 320 319 319 319 319 318 317 316 315 315 315 315 315 313 312 311 310 310 310 309 309 309 309 308 307 306 305 305 305 305 305 305 306 306 306 307 307 307 306 305 305 305 306 306 306 306 305 305 305 305 306 306 306 306 306 305 305 305 306 307 306 306 306 307
329 329 329 328 328 328 328 328 328 328 327 325 324 323 323 323 322 321 321 320 320 319 318 318 318 317 317 316 315 314 314 315 315 314 312 312 311 310 309 310 309 309 309 309 309 308 307 306 306 305 305 304 304 304 305 305 306 306 306 306 305 304 304 305 305 305 305 304 304 304 304 304 305 306 306 305 304 304 303 304 305 305 305 304 303
328 328 328 327 327 326 326 326 326 326 325 324 323 323 322 322 321 320 320 319 319 318 317 317 316 316 316 315 314 314 314 315 315 314 312 311 311 310 310 310 310 310 309 309 309 309 308 307 306 306 305 304 304 304 304 304 305 305 305 306 305 304 303 304 303 304 304 304 303 303 303 304 304 305 305 304 304 303 302 302 303 304 304 303 302
328 327 326 325 325 325 325 325 325 324 323 323 322 322 321 320 320 319 319 318 317 317 316 316 315 315 315 314 313 314 315 315 314 314 313 312 312 311 311 311 311 310 309 309 309 309 309 308 307 306 306 305 304 303 303 303 304 304 304 305 305 303 302 303 303 303 303 303 302 302 302 303 303 304 304 304 303 303 302 302 302 302 303 303 302
327 325 324 324 324 324 324 324 323 323 322 321 321 321 320 319 319 319 318 317 316 316 315 314 314 314 314 313 313 314 314 314 314 314 314 314 313 312 312 311 311 311 310 309 309 309 309 309 309 308 307 305 304 303 303 303 303 303 303 303 304 303 302 302 302 302 302 302 302 301 302 302 302 303 303 303 303 303 302 301 301 301 301 302 302
325 324 323 323 323 323 323 322 321 321 321 320 320 319 319 319 319 318 316 316 315 315 314 313 313 314 313 313 313 314 314 314 314 314 315 315 314 313 312 311 311 310 310 309 309 309 310 309 309 309 308 307 305 303 303 303 303 302 302 302 302 302 302 302 302 301 301 301 301 301 300 300 301 302 303 303 303 303 302 301 301 301 300 300 300
324 323 322 321 321 322 322 321 320 320 320 320 319 318 318 318 317 316 315 315 314 313 313 312 313 313 313 313 313 313 313 313 313 313 314 315 314 313 312 311 311 310 309 309 309 310 309 308 308 308 308 308 306 305 304 304 304 302 301 301 302 302 302 302 302 301 301 301 300 300 299 299 301 302 302 302 303 303 302 301 301 300 300 300 299
323 322 321 321 321 321 321 320 320 319 319 319 318 318 317 316 316 315 315 314 313 312 312 312 313 313 313 313 313 313 313 312 312 312 312 313 313 312 311 310 310 309 309 309 309 309 308 308 308 307 307 307 307 306 305 304 303 301 301 301 302 302 302 302 302 302 301 301 300 299 299 299 300 302 303 303 303 303 302 301 301 300 300 299 299
322 321 320 320 320 320 320 320 319 319 318 318 317 317 316 315 315 314 313 312 312 312 312 312 313 313 313 313 313 312 311 310 310 310 311 311 311 311 310 309 308 308 308 309 310 309 308 307 307 306 306 306 306 306 305 303 301 300 300 300 301 302 302 302 303 303 302 302 300 299 299 300 301 303 303 303 302 302 302 301 301 300 300 299 299
322 321 320 320 320 319 319 319 318 318 317 317 317 316 315 315 314 313 312 311 311 311 312 312 313 313 313 312 310 308 306 306 306 307 308 308 308 308 308 307 307 306 307 307 308 309 308 307 306 306 305 305 304 305 304 301 300 299 299 300 301 301 301 301 301 302 302 302 301 300 300 301 301 303 303 303 302 302 301 301 301 300 300 300 299
321 320 320 319 319 319 318 318 317 316 316 316 315 315 314 314 313 312 311 310 310 311 311 312 313 312 311 310 307 305 304 304 304 304 305 305 306 306 306 306 306 306 306 306 306 307 307 306 306 305 304 304 304 304 303 301 300 299 299 299 300 301 301 301 301 301 302 301 301 301 301 301 301 303 303 303 303 302 302 302 301 301 301 301 300
321 320 319 319 319 318 318 317 316 316 315 315 314 314 313 313 312 311 310 309 309 310 311 312 311 310 309 307 306 304 303 302 303 303 303 304 304 304 304 304 305 305 305 305 305 305 305 304 304 303 303 303 303 303 302 301 300 299 299 299 299 299 300 301 301 301 302 301 301 301 301 301 302 303 303 304 303 303 303 303 302 301 301 301 301
320 319 319 319 318 318 318 317 316 315 315 314 314 313 313 313 311 310 309 309 309 310 311 309 308 308 308 307 306 304 302 302 302 302 302 303 303 303 303 303 304 304 304 304 304 304 304 303 302 302 302 302 302 302 301 300 300 300 300 299 298 298 299 300 301 302 302 302 302 302 302 303 303 303 303 303 303 304 303 302 301 301 301 301 301
320 319 319 319 318 317 318 318 316 315 315 314 314 313 313 312 310 309 308 309 310 310 310 308 307 308 307 306 305 304 302 301 301 302 302 302 302 303 303 303 303 303 303 303 303 303 303 302 302 302 302 302 301 301 301 301 300 300 300 299 299 298 298 299 300 301 302 302 302 302 303 303 303 303 303 303 303 303 302 301 301 301 300 299 299
319 319 319 319 318 317 317 317 316 315 315 314 314 314 313 311 309 308 308 308 309 309 309 308 308 307 307 306 304 303 302 301 301 301 301 301 302 302 302 303 302 302 303 303 303 303 302 302 302 302 302 302 302 301 301 301 301 300 300 300 299 298 298 298 299 300 301 301 301 301 301 302 302 303 303 302 302 301 301 300 300 300 299 298 298
319 319 318 317 316 316 315 315 315 315 315 314 314 313 312 310 309 307 307 308 309 309 309 309 308 307 306 305 303 301 301 301 300 300 301 301 301 302 302 302 302 302 302 302 302 302 302 302 302 302 302 302 302 301 301 301 301 301 300 300 299 298 298 297 298 300 300 300 300 300 301 301 301 301 301 301 300 299 299 299 299 299 298 297 297
317 317 316 315 315 315 314 314 314 314 314 314 313 312 311 310 309 308 307 307 308 308 308 309 308 307 305 304 302 301 301 300 300 300 300 301 301 301 301 301 302 302 302 302 302 301 301 301 301 301 302 301 302 302 301 301 302 301 300 300 299 298 298 297 298 299 299 300 300 300 300 300 300 300 299 299 298 298 298 298 298 298 298 297 297
316 315 315 314 314 314 314 313 313 313 313 313 312 311 309 309 308 308 307 307 307 307 307 307 307 306 304 302 301 300 300 300 300 300 300 300 301 301 301 301 301 301 301 301 301 300 300 301 301 301 301 301 301 302 301 301 301 301 301 300 299 298 298 297 297 298 299 299 299 299 298 298 298 298 297 297 297 297 297 297 297 297 298 298 297
315 315 315 314 314 315 314 312 312 312 312 313 312 310 308 308 308 308 308 307 307 306 305 306 306 306 304 302 300 300 300 299 299 300 300 300 300 300 300 300 300 300 300 300 300 300 300 300 300 300 301 301 301 301 301 301 301 301 301 300 299 299 298 297 297 297 298 298 298 297 297 297 297 297 296 296 296 296 297 297 297 297 297 297 297
315 314 314 314 313 313 312 311 312 313 313 313 312 309 308 308 307 307 307 307 306 305 305 305 306 306 304 302 300 299 299 299 299 299 299 299 300 300 300 300 299 299 299 299 299 299 299 299 299 299 300 300 300 301 301 301 301 301 301 300 299 299 298 298 297 297 297 297 297 297 297 297 297 296 296 296 297 297 297 297 297 297 297 297 297
314 314 313 313 312 311 311 311 312 313 313 313 312 311 310 309 307 306 305 305 305 305 305 305 305 305 303 302 300 299 298 298 299 299 299 299 299 299 299 299 299 299 299 298 298 298 298 298 299 299 299 299 300 300 300 301 301 301 300 300 299 299 299 298 298 297 297 297 297 297 297 297 297 297 297 298 298 297 297 297 297 297 297 297 297
314 313 313 312 311 311 310 310 310 311 311 311 311 311 311 310 308 306 305 304 304 304 304 304 304 303 302 301 300 299 298 298 299 299 299 299 299 299 299 299 298 298 298 298 298 298 298 298 298 298 298 299 299 300 300 300 300 300 300 300 299 299 299 299 298 298 297 297 297 297 297 297 298 298 298 298 298 297 297 297 297 297 297 296 296
313 313 312 311 311 310 310 309 308 307 307 308 309 309 309 310 309 307 306 306 305 303 304 305 304 304 303 301 299 298 297 298 299 299 299 299 299 299 299 299 298 298 298 297 297 297 297 297 297 297 298 298 299 299 299 300 300 300 300 299 299 299 299 298 298 298 298 297 297 297 297 297 297 297 297 297 297 297 297 297 297 296 296 296 295
312 312 311 310 310 309 308 308 307 306 305 305 306 307 307 308 309 308 307 307 306 306 306 306 306 306 305 302 300 298 298 298 299 299 299 299 299 299 299 299 298 298 297 297 296 296 296 296 297 297 297 297 298 298 298 299 299 300 300 299 299 299 298 298 298 298 298 298 298 297 297 297 297 297 297 297 297 297 297 297 296 296 296 295 294
311 311 311 310 310 309 308 306 306 306 305 304 304 303 302 303 305 305 305 305 305 306 306 306 306 306 305 303 301 300 299 298 299 299 299 299 299 299 298 298 298 298 297 297 297 296 296 296 296 296 296 297 297 297 297 298 298 299 299 299 299 299 298 298 298 298 298 298 298 298 298 298 297 297 297 296 296 296 296 296 296 296 295 295 294
310 310 310 310 309 308 307 305 305 305 305 305 304 302 300 299 300 301 302 303 303 304 305 305 305 305 304 303 301 300 299 298 299 299 299 299 299 299 298 298 298 297 297 297 297 297 296 296 295 295 295 296 296 296 296 297 297 298 298 298 299 299 299 298 298 298 298 298 298 298 298 298 298 298 297 297 296 296 296 296 295 295 295 295 294
309 309 309 309 308 308 306 305 305 304 303 303 303 302 300 298 297 297 298 299 301 302 303 303 303 303 303 303 301 299 298 298 299 299 299 298 298 299 298 298 298 298 298 298 297 297 296 296 296 295 295 295 295 295 296 296 296 296 297 297 298 298 298 299 298 298 298 298 298 298 298 298 298 298 298 298 297 297 297 296 296 295 295 295 295
310 308 307 307 307 306 305 304 304 304 304 303 303 302 302 300 297 296 296 297 298 299 300 301 302 302 301 300 299 298 298 298 298 298 298 298 298 298 298 298 298 298 298 298 297 297 297 296 296 295 295 295 294 295 295 295 295 295 295 296 296 297 297 298 298 298 298 298 298 298 298 298 298 298 298 298 298 298 297 297 296 296 296 295 295
310 309 308 307 306 305 304 304 304 304 305 305 304 304 303 301 298 297 296 297 297 297 298 298 299 299 299 298 297 297 298 298 298 298 298 298 298 298 298 298 298 298 298 297 297 297 297 296 296 296 295 295 294 294 294 294 295 295 295 295 295 296 296 296 297 297 298 298 298 298 298 298 298 298 298 298 298 298 298 298 297 297 297 296 296
308 308 307 307 306 305 305 305 306 306 306 305 306 305 302 299 298 297 297 297 297 297 298 298 298 298 298 298 298 298 299 299 299 298 298 297 297 298 298 298 298 298 298 297 297 297 297 296 296 296 296 295 295 294 294 294 294 294 294 294 294 295 295 295 295 296 296 297 297 297 297 297 297 297 297 298 298 298 298 298 298 298 297 297 297
307 306 305 305 306 306 306 306 307 309 308 306 306 304 301 298 297 296 296 297 298 298 298 298 299 299 299 299 299 299 299 299 299 298 297 297 297 297 297 298 298 298 298 298 297 297 297 297 296 296 296 295 295 295 295 294 294 294 294 294 294 294 294 294 294 295 295 295 295 296 295 296 296 296 296 297 297 297 297 297 297 298 298 298 298
307 306 305 305 306 307 306 305 306 308 308 307 306 303 299 297 296 296 296 297 297 298 298 299 299 299 299 300 300 299 298 298 298 297 297 297 297 297 297 298 298 298 298 298 298 297 297 297 297 296 296 296 295 295 294 294 295 294 294 294 294 294 294 294 294 294 294 294 294 294 294 294 294 294 295 295 295 295 295 295 296 296 297 298 298
309 309 309 308 307 307 305 304 304 306 307 306 305 303 300 298 298 297 296 297 297 297 298 298 298 298 299 299 299 297 297 296 296 296 296 296 297 297 298 298 298 298 298 298 298 298 297 297 297 297 296 296 295 295 294 294 294 294 294 294 294 294 294 294 294 294 294 294 294 294 294 294 294 294 294 294 294 294 294 294 294 294 295 296 297
308 309 309 309 308 307 306 305 305 305 306 305 303 302 301 301 300 299 299 298 298 297 297 298 298 299 299 298 296 295 295 295 295 296 296 296 296 297 297 298 298 298 298 298 298 298 297 297 297 297 297 296 296 296 295 295 295 294 294 294 294 294 294 294 294 294 294 294 294 294 294 294 293 294 293 293 293 293 293 293 293 294 294 294 295
308 307 306 306 307 307 307 306 306 305 306 305 303 301 302 302 302 302 301 300 299 299 298 299 299 299 297 295 294 294 294 295 295 296 296 296 296 297 297 298 298 298 298 298 298 298 298 297 297 297 297 296 296 296 296 295 295 295 295 294 294 294 293 293 293 293 293 294 294 294 294 294 293 294 293 293 294 294 293 293 293 293 293 293 293
308 306 304 305 307 307 306 306 305 305 305 304 303 302 302 301 302 302 301 300 299 299 298 298 298 296 294 293 293 293 294 295 295 296 296 296 297 297 297 298 297 297 297 297 297 297 297 297 296 296 296 296 295 295 295 295 295 294 294 294 294 293 293 293 292 292 292 293 293 293 293 293 293 293 293 294 294 293 293 294 293 293 293 293 293
307 305 304 304 305 305 304 304 303 302 302 301 301 301 301 301 301 300 300 299 298 297 296 296 294 293 292 292 292 293 294 295 296 296 296 296 296 297 297 297 297 297 297 296 296 296 296 295 295 295 295 295 295 294 294 294 294 293 293 293 293 293 292 292 292 291 291 292 292 293 293 293 293 293 293 293 293 293 293 293 293 293 293 293 293
306 304 303 302 302 303 303 302 300 299 299 299 299 299 299 300 299 298 297 296 295 295 295 294 293 291 291 291 292 293 294 295 295 295 295 296 296 296 297 297 296 296 296 296 295 295 295 295 295 295 295 295 294 294 294 293 293 293 293 292 292 292 292 292 291 291 291 291 291 292 292 292 292 292 292 292 292 293 293 293 293 293 293 293 293
305 303 302 302 302 303 302 301 299 298 298 298 298 298 299 298 298 297 296 295 294 294 294 293 291 290 290 291 292 293 294 294 295 295 295 295 296 296 296 296 296 295 295 295 295 295 295 295 295 295 295 295 294 294 294 293 293 293 293 292 292 292 292 292 292 292 291 291 291 291 291 291 291 291 291 291 291 292 293 293 293 292 292 292 292
305 304 303 304 304 303 302 302 301 301 300 299 298 297 297 297 296 296 295 294 293 293 292 291 290 290 290 291 292 293 294 295 295 295 295 295 296 296 296 295 295 295 295 295 296 295 295 295 295 295 295 295 294 294 294 293 293 293 292 292 292 292 292 292 292 292 292 292 292 291 291 291 291 291 291 291 291 291 291 291 291 291 292 292 292
305 304 304 304 304 303 303 302 302 301 300 299 298 296 295 294 294 293 293 292 291 291 290 290 290 290 290 291 292 294 294 295 295 295 295 295 295 295 296 296 296 296 296 296 296 296 296 296 296 295 295 295 295 294 294 294 293 293 293 292 292 292 292 292 292 292 292 292 292 292 292 292 292 292 291 291 291 291 291 291 291 290 290 290 291
305 304 304 303 303 302 301 300 300 299 298 297 296 295 294 293 293 292 293 293 292 291 290 290 290 290 290 290 292 294 294 294 295 296 296 296 295 295 295 295 296 296 296 296 296 296 296 296 296 296 296 296 295 295 295 295 294 294 294 294 293 293 293 293 293 292 292 292 292 292 292 292 292 292 292 292 292 292 292 292 292 291 291 291 290
305 304 303 302 301 300 299 298 297 296 296 295 294 294 294 294 294 295 295 294 293 291 291 290 290 291 290 290 292 294 295 294 295 296 296 296 296 296 295 295 295 295 295 295 295 296 296 296 296 296 296 296 296 295 295 295 295 295 295 294 294 294 294 294 294 294 293 293 293 292 292 292 292 292 292 292 292 292 292 292 292 292 292 292 292
304 303 302 301 300 300 299 297 297 296 295 294 294 294 295 296 296 296 295 294 292 291 291 291 290 291 291 290 291 293 294 295 295 296 297 296 296 296 296 296 296 296 296 296 296 296 296 296 296 296 296 296 295 295 295 295 295 295 295 295 295 295 295 295 295 294 294 294 294 293 293 293 293 293 293 293 293 293 292 292 292 292 292 292 292
303 302 302 301 301 301 300 298 298 297 295 294 294 295 296 296 297 297 296 295 294 294 294 294 293 292 292 291 291 292 293 294 295 296 296 296 296 296 296 296 296 296 296 296 296 296 296 296 296 296 296 295 295 295 295 295 295 295 295 295 295 295 294 294 294 294 294 294 294 294 294 294 294 294 294 294 293 293 293 292 292 292 292 292 292
303 302 302 302 301 301 300 299 298 297 296 295 296 297 298 298 298 298 297 296 296 296 297 296 296 296 295 294 293 293 294 294 295 295 295 295 295 296 296 296 296 296 296 296 296 296 296 296 296 296 296 295 295 295 295 294 294 294 294 294 294 294 294 294 294 294 294 294 293 294 293 293 293 293 293 293 293 293 292 292 291 291 291 291 291
Wind_Speed
20 20 21 22 22 20 19 19 19 19 20 21 23 24 24 23 22 20 18 15 13 12 11 10 9 8 9 9 9 10 9 8 8 9 9 9 8 9 9 9 12 12 11 13 15 16 16 18 19 19 18 17 16 15 15 14 13 12 11 11 11 11 11 10 7 9 14 17 20 22 23 23 21 22 25 25 24 21 19 19 21 21 21 21 20
16 14 15 17 20 21 20 19 20 20 21 22 23 25 25 24 23 20 18 16 14 12 11 10 9 10 10 9 8 8 8 7 8 8 8 8 8 9 9 10 12 11 11 13 16 15 16 18 19 19 19 19 18 17 16 16 15 14 13 13 12 11 11 11 9 9 13 17 20 22 23 22 21 23 25 25 24 22 19 21 23 22 22 21 20
21 20 17 16 19 23 23 22 22 22 23 24 25 26 26 24 22 20 18 17 14 12 11 10 11 11 11 9 8 8 8 9 8 7 7 8 10 11 11 11 12 11 11 12 14 15 17 19 20 19 20 20 19 18 17 17 16 16 14 13 12 11 12 12 11 10 12 15 18 21 22 22 21 23 24 24 24 21 17 19 24 24 23 22 22
26 25 22 19 20 23 25 25 25 25 26 26 27 26 25 23 21 19 18 17 15 13 11 11 12 12 11 9 8 8 9 9 8 8 9 10 12 12 12 12 11 10 11 11 12 15 19 21 21 20 20 21 21 20 20 20 19 18 17 14 12 11 11 12 13 11 11 14 16 19 20 20 21 22 26 27 25 23 19 17 21 24 24 24 23
26 26 26 24 22 23 26 27 27 28 28 28 27 26 24 23 21 19 18 16 14 13 13 13 13 12 10 8 9 10 10 9 10 11 12 12 11 12 13 12 11 10 10 10 12 16 19 22 22 22 22 22 22 22 22 22 22 21 20 18 14 12 12 12 12 12 12 13 15 18 19 20 21 23 26 27 25 26 24 18 18 21 23 25 25
28 28 27 27 27 26 27 28 29 30 30 28 27 25 24 22 20 18 16 15 14 13 14 14 13 11 10 9 10 11 11 11 11 13 13 11 11 12 13 12 10 9 9 10 11 14 17 19 20 21 22 22 22 22 22 23 24 23 23 21 18 14 13 13 12 12 13 13 14 18 19 20 22 23 25 25 23 25 26 22 20 20 20 24 28
29 29 29 29 30 30 30 31 31 31 30 29 27 25 23 21 19 17 15 13 13 14 15 14 12 10 10 10 11 13 13 12 12 13 13 12 11 13 13 11 9 7 7 8 9 10 13 15 16 18 19 20 21 21 22 22 23 24 24 23 21 17 14 13 14 13 14 14 15 17 18 18 20 21 22 22 19 21 24 22 22 23 21 23 29
28 30 30 30 31 32 32 32 32 31 30 28 26 24 22 20 18 16 14 12 13 14 14 13 10 10 11 12 13 13 13 12 12 13 13 12 11 12 11 10 9 7 7 7 7 7 8 10 12 14 15 17 18 19 20 21 22 24 24 24 23 19 14 15 15 15 15 15 15 17 18 18 20 22 22 23 22 23 23 19 18 20 20 20 27
29 30 31 31 32 33 33 32 32 31 30 28 27 24 22 20 18 15 13 13 14 13 11 9 10 13 14 13 13 13 13 12 11 11 12 12 10 10 9 8 7 6 6 6 5 4 4 6 8 10 12 14 15 16 18 20 22 23 24 24 24 21 17 16 16 15 15 15 16 18 18 18 21 23 23 24 22 20 19 18 16 17 18 18 23
30 31 31 32 33 34 34 33 33 31 30 29 27 24 22 20 16 14 14 15 14 12 9 9 12 16 16 14 14 13 12 11 10 9 10 10 9 8 8 7 6 6 6 5 3 3 4 5 5 6 7 10 13 15 17 19 21 22 22 23 23 23 20 17 16 15 15 14 15 17 16 17 19 20 20 20 18 18 18 19 17 17 20 20 20
30 31 31 33 34 35 34 34 33 31 30 28 26 24 22 19 17 16 17 15 13 12 11 13 16 17 16 15 14 12 11 10 8 8 9 9 8 7 6 6 6 6 5 3 3 3 5 5 5 4 4 6 11 14 16 18 19 19 19 21 21 22 21 19 16 15 14 14 15 16 16 16 18 18 19 18 18 18 18 18 17 17 19 18 16
30 30 32 33 35 35 35 34 32 31 29 27 25 23 21 20 19 18 17 14 14 14 15 17 18 17 16 15 13 12 10 9 7 6 8 9 9 7 6 6 6 6 5 3 3 5 6 6 6 6 5 5 7 12 15 15 15 16 17 18 20 20 20 19 17 16 15 14 15 17 17 17 18 18 18 18 17 16 16 17 18 18 18 17 16
30 30 32 34 34 35 35 34 32 31 29 27 25 23 22 21 20 18 16 15 15 17 18 19 19 17 16 15 13 11 9 7 6 6 7 8 8 7 6 6 5 6 5 4 4 7 7 7 7 7 8 6 6 9 12 12 13 14 15 17 18 18 17 18 17 16 15 14 14 16 16 17 18 17 16 15 15 14 14 15 16 17 18 19 19
30 31 32 33 33 34 34 33 32 31 29 27 25 24 23 22 20 17 16 16 18 19 20 20 18 17 16 14 13 11 8 7 6 6 7 7 7 6 6 6 6 7 7 6 6 7 6 8 9 8 9 9 8 8 9 11 13 15 16 16 16 16 15 16 15 15 15 15 14 15 15 16 17 15 13 12 13 13 14 13 13 15 17 18 18
31 32 32 32 32 33 32 32 31 30 28 27 26 25 24 22 19 17 17 18 19 20 20 19 19 17 15 14 13 12 10 8 6 5 6 7 7 7 7 7 8 9 8 8 7 7 6 7 8 8 9 10 10 8 8 11 14 16 17 17 16 15 14 13 13 13 13 13 13 14 15 16 16 14 11 10 10 11 11 11 11 12 13 15 17
30 31 32 32 32 33 32 31 30 29 28 27 26 26 24 22 19 19 19 19 19 20 20 20 19 18 16 15 15 14 12 9 7 7 7 7 8 9 9 9 10 10 9 9 9 8 6 6 7 9 10 10 9 8 8 11 14 16 19 19 18 16 14 12 11 11 11 11 12 12 14 15 15 14 12 10 9 9 9 11 13 12 11 12 15
29 31 32 32 33 32 32 32 30 29 28 28 27 26 24 22 20 21 22 22 21 22 22 21 19 18 17 16 15 15 14 11 9 8 9 9 10 11 11 11 11 10 10 9 9 9 9 10 10 11 11 10 9 7 7 10 13 16 19 20 20 20 17 13 11 10 10 11 11 11 14 16 16 15 14 13 12 11 12 13 14 12 11 9 9
30 31 32 33 33 32 32 32 31 30 29 28 29 27 24 22 22 23 24 24 25 24 23 21 20 18 17 15 15 15 14 12 11 10 10 10 10 11 12 13 13 13 12 12 11 11 12 11 11 10 9 9 8 6 6 9 12 14 17 19 21 21 19 16 13 12 12 12 12 13 15 17 17 17 16 16 15 15 15 14 12 10 10 8 5
32 33 33 34 33 33 34 33 33 32 30 30 30 28 24 23 23 24 24 25 26 26 24 23 22 19 16 15 14 14 15 14 12 12 12 11 11 12 13 15 16 15 14 14 13 12 10 9 8 7 6 5 5 5 5 8 10 13 15 18 19 19 18 16 14 13 14 15 15 17 18 18 18 18 17 17 17 17 17 15 13 11 9 8 7
32 33 35 35 34 35 35 35 35 34 32 32 30 27 25 25 25 24 24 25 26 26 25 24 22 20 17 15 14 14 14 15 14 13 12 12 12 12 13 14 16 16 14 13 11 10 8 7 6 6 4 3 3 4 4 5 8 11 14 16 18 17 17 16 14 13 15 17 18 19 20 20 20 19 18 19 19 19 18 18 17 15 10 9 10
32 33 34 33 33 34 33 33 34 34 33 32 30 27 26 28 28 25 24 24 25 25 25 24 23 21 19 16 16 15 14 14 14 14 13 12 11 11 12 13 14 14 13 12 10 9 8 6 5 5 5 4 2 2 3 4 5 8 12 14 16 16 17 17 15 13 14 17 18 20 21 21 21 21 20 21 21 20 20 19 19 18 16 13 11
28 29 29 28 29 30 30 30 32 33 33 32 30 29 29 29 29 27 24 24 24 24 24 24 24 24 21 18 17 16 14 14 14 13 12 11 10 10 11 12 11 11 11 11 10 9 8 6 5 5 5 4 2 1 2 2 3 7 10 12 14 16 17 17 16 15 16 17 19 21 21 21 21 21 21 21 20 20 20 19 18 18 18 17 14
30 30 31 31 30 29 30 31 32 33 34 32 30 30 31 30 29 28 25 24 23 23 22 23 24 25 23 20 18 16 15 14 14 13 12 11 10 9 10 11 10 8 9 10 10 9 8 7 6 5 4 4 3 1 1 1 2 5 8 10 12 15 16 17 17 17 17 18 20 21 21 20 20 20 19 19 19 19 18 18 18 17 16 15 15
34 34 35 37 36 34 33 33 34 34 34 31 30 31 31 30 29 27 25 24 23 22 22 22 24 26 25 22 20 17 16 15 14 14 13 11 10 10 9 10 9 8 8 9 9 8 7 6 5 4 3 3 2 2 2 2 3 4 6 8 11 14 16 17 18 18 19 19 19 19 18 17 17 16 15 15 16 17 17 18 18 17 16 15 15
34 34 34 35 36 35 34 35 35 35 32 30 29 31 30 29 28 27 25 24 23 23 23 23 24 27 26 24 21 19 17 17 16 14 13 11 10 10 9 9 9 7 7 8 8 6 5 5 5 4 3 2 2 2 2 3 4 5 6 8 10 13 15 16 17 18 19 18 17 17 15 14 13 12 11 12 13 15 16 17 18 18 17 17 17
31 31 31 31 33 34 34 34 35 33 31 28 28 28 28 28 27 26 25 24 23 23 23 23 25 26 26 25 22 20 19 18 17 15 13 12 11 10 9 9 8 7 7 7 6 5 5 4 4 3 2 2 1 2 2 3 5 5 6 7 10 12 13 14 16 18 18 17 16 15 14 13 12 11 11 12 14 15 16 17 18 19 19 19 21
29 29 30 30 31 32 33 33 33 32 30 29 28 28 27 27 26 26 25 24 23 24 24 24 25 26 26 25 23 21 21 19 18 16 14 12 11 10 9 9 8 7 7 6 6 5 4 3 3 2 2 2 2 3 3 4 6 6 6 7 9 11 12 13 15 17 18 17 16 15 15 14 14 14 14 15 15 15 15 16 17 18 18 20 22
28 28 29 29 29 31 32 32 31 29 27 28 28 28 27 26 25 25 25 25 25 26 26 26 27 28 28 27 24 22 21 19 18 16 14 13 12 11 10 9 8 7 6 6 5 5 4 3 2 2 2 2 3 4 4 5 6 6 6 7 8 9 10 12 13 14 16 17 17 17 17 17 17 16 17 17 16 15 14 14 15 16 18 19 20
28 28 28 28 28 29 29 29 29 28 26 26 26 25 25 24 23 23 23 24 25 25 26 26 27 28 29 28 26 24 23 21 18 16 14 12 11 10 9 9 8 7 6 5 5 5 4 3 3 2 2 3 4 5 5 5 6 6 6 6 7 8 10 11 11 11 12 14 15 16 17 17 17 17 18 18 18 16 15 15 15 16 19 21 18
28 29 29 29 29 29 27 26 28 29 27 26 25 21 19 20 20 20 21 22 22 22 22 22 23 25 26 26 24 23 22 21 18 15 13 12 10 9 9 8 8 8 6 5 4 4 4 4 4 3 3 3 4 5 6 6 6 5 5 5 5 6 8 9 10 9 9 10 11 12 13 14 15 16 16 17 17 16 16 16 15 16 19 20 18
28 28 30 30 30 30 28 27 28 28 27 27 26 23 19 16 14 15 18 19 20 20 19 19 20 22 23 23 21 19 19 19 17 14 13 11 10 9 9 9 9 8 6 5 4 4 3 4 4 3 3 3 3 4 5 6 6 5 5 4 4 4 5 6 7 7 7 8 8 9 10 11 11 12 13 14 14 14 14 14 15 15 16 17 17
30 28 29 31 31 30 29 28 28 28 27 26 25 24 22 18 14 13 14 15 17 18 17 18 20 21 20 19 19 18 18 18 16 14 12 11 9 9 9 9 9 8 6 5 5 4 3 2 2 2 2 2 2 3 3 4 4 4 4 3 3 2 2 3 4 4 5 5 6 6 7 7 8 9 9 10 10 11 11 12 13 13 13 13 13
30 29 28 30 30 29 29 29 28 28 28 26 25 24 23 21 19 16 14 14 15 15 15 17 20 20 19 18 17 16 17 17 15 13 12 11 10 10 9 8 8 7 6 6 6 6 5 4 2 2 2 1 2 2 3 3 3 3 3 3 3 2 1 0 1 2 2 2 2 3 4 4 5 5 6 7 7 8 8 9 9 10 10 10 10
30 31 31 30 30 29 29 29 29 28 28 27 25 23 22 22 22 21 19 17 16 15 15 18 20 20 18 17 16 14 14 15 15 14 13 11 11 10 9 8 8 7 6 6 6 6 6 6 5 4 3 2 2 2 2 2 2 2 2 2 2 2 2 2 1 1 1 1 1 2 2 2 3 3 4 5 5 6 6 6 6 7 7 7 7
28 30 31 31 31 30 29 29 29 28 27 26 25 22 21 22 23 23 23 22 20 18 17 18 19 19 17 16 14 12 12 14 14 14 13 12 11 10 10 9 9 8 6 6 5 5 6 6 6 6 5 4 3 3 2 1 1 1 1 1 1 2 2 2 3 2 2 2 2 2 2 1 2 2 2 2 3 4 4 4 5 5 5 5 5
28 28 28 29 30 30 29 29 28 26 26 25 23 21 21 22 22 23 23 22 22 21 19 18 18 18 16 15 13 11 12 14 15 14 13 12 11 10 10 9 9 9 8 7 6 5 5 6 6 6 5 5 4 4 3 2 1 1 1 1 1 0 0 1 1 2 2 3 3 3 2 2 2 2 1 1 1 1 2 3 3 4 4 4 5
28 28 27 27 27 28 28 27 25 24 24 24 22 21 22 22 22 22 22 21 21 21 20 19 18 17 16 15 13 11 12 15 14 13 13 12 10 9 9 9 10 10 10 8 7 6 6 6 6 6 5 4 3 3 4 4 4 3 3 3 2 2 3 3 3 3 3 3 4 4 3 3 3 3 2 2 1 1 1 2 3 4 4 5 6
28 28 27 26 26 26 26 24 23 23 23 22 21 22 23 22 21 21 22 21 21 21 20 19 19 18 17 16 14 13 14 15 15 13 13 11 9 9 9 9 10 10 10 9 9 8 8 8 8 7 6 5 3 2 3 4 5 6 6 5 5 4 5 5 5 5 5 5 5 5 5 5 4 4 4 3 3 2 2 2 3 4 4 6 7
27 27 26 25 25 25 25 24 24 23 22 21 21 22 22 22 21 20 20 20 20 20 20 20 19 18 17 16 16 16 17 16 15 14 12 11 9 9 9 9 10 10 10 10 10 10 10 10 9 8 8 7 6 4 4 4 5 6 7 7 7 6 6 7 7 7 7 8 8 7 7 6 6 6 6 5 5 5 4 4 5 5 5 6 7
25 25 24 24 24 24 24 23 23 22 21 21 21 21 21 20 20 19 18 18 19 19 20 21 20 19 17 17 17 18 18 18 16 14 12 10 9 9 10 10 10 10 10 9 10 10 10 10 10 9 9 8 8 7 7 7 7 8 8 8 8 7 8 8 9 9 9 10 10 9 9 8 8 8 8 8 8 7 7 7 7 7 7 8 8
24 24 24 24 23 23 22 22 21 21 21 20 20 19 19 19 18 16 16 17 18 19 20 20 19 17 16 16 17 17 18 17 15 13 11 10 10 10 11 10 9 9 9 9 9 9 9 9 9 9 9 9 9 9 9 9 10 10 10 10 10 9 9 10 11 11 11 11 11 11 11 11 11 11 11 11 10 10 10 9 9 9 9 9 9
23 24 24 23 22 22 22 21 21 20 19 18 18 19 19 18 16 15 15 16 18 19 20 18 16 15 16 16 17 17 16 15 13 11 11 11 11 11 11 10 10 8 8 8 8 8 8 8 8 8 8 9 9 9 10 10 10 11 11 11 11 11 11 12 12 12 13 13 13 13 13 13 13 14 14 14 14 13 13 12 12 12 11 11 12
23 24 23 21 20 20 20 19 19 18 17 17 17 17 17 15 14 14 15 16 17 18 17 15 14 15 16 16 17 17 15 13 11 10 10 11 11 11 10 9 9 8 7 8 8 9 9 9 9 9 9 9 10 10 11 11 11 12 12 12 12 12 13 13 13 13 14 14 14 14 14 15 15 16 16 16 16 16 16 16 15 15 15 14 14
22 22 21 19 18 16 16 15 14 14 14 15 14 14 13 13 12 13 13 14 14 14 13 13 14 15 17 17 17 17 15 12 10 8 8 9 10 10 10 9 8 8 8 8 8 9 9 10 10 10 10 10 11 11 12 12 12 13 13 13 13 14 14 14 14 14 14 15 15 15 16 16 16 17 17 17 17 18 19 19 19 18 18 17 17
20 20 20 18 16 15 13 12 11 11 12 12 12 11 10 10 10 10 10 11 11 10 11 11 13 15 17 18 18 17 15 12 9 8 7 8 9 9 9 8 8 8 8 7 7 7 8 8 9 9 10 10 10 11 11 12 12 13 13 14 14 15 15 15 15 16 16 17 17 17 17 18 18 19 19 19 19 20 21 21 21 21 21 21 20
20 20 19 18 16 14 12 11 11 11 11 11 11 10 10 9 8 8 7 7 8 8 9 10 12 14 15 17 17 17 14 11 9 8 7 7 9 9 9 9 9 8 8 7 7 7 7 8 8 9 9 8 9 9 10 11 11 12 13 14 15 15 16 16 17 18 18 18 19 19 19 20 20 20 20 20 20 21 22 22 22 22 23 23 23
19 19 18 17 16 14 13 12 12 11 11 11 10 10 10 9 8 7 6 6 6 6 7 9 10 12 14 15 17 16 14 10 9 7 7 7 9 9 10 10 10 9 9 8 8 8 8 9 9 9 9 9 9 10 11 12 12 13 14 15 15 16 17 18 18 19 19 19 20 20 21 21 22 21 21 22 22 22 23 23 23 23 23 24 24
19 18 17 16 15 14 14 13 12 12 12 11 11 11 10 8 7 6 5 6 7 8 8 9 9 10 11 13 15 16 14 11 10 9 8 8 9 9 10 11 11 10 10 9 9 9 10 11 11 12 12 13 13 14 14 15 15 15 16 16 17 18 18 18 19 19 20 20 21 22 22 23 23 23 24 24 24 24 25 25 25 26 25 25 26
18 18 18 17 15 13 11 11 11 11 12 12 12 11 9 7 6 5 5 6 8 9 9 8 8 9 9 11 14 17 17 15 13 12 9 8 8 8 9 10 10 10 10 9 9 10 11 13 14 15 15 16 17 18 19 19 19 19 20 20 20 21 21 21 21 21 22 22 23 24 24 25 25 25 26 26 26 27 28 28 28 29 29 28 29
17 17 16 14 12 9 8 8 8 10 10 11 10 9 7 6 5 6 6 7 7 8 7 7 6 7 8 10 12 16 17 18 16 14 11 10 10 9 9 9 9 10 10 11 12 13 14 15 16 17 18 19 20 21 21 22 22 22 22 23 23 23 24 24 24 24 24 25 25 26 26 27 27 28 29 29 29 30 31 31 31 31 31 31 32
15 14 12 10 8 7 7 7 8 9 9 9 8 6 6 6 6 7 7 6 6 6 5 6 6 7 7 8 10 12 14 16 16 15 14 14 13 12 11 10 10 10 11 12 13 14 15 16 17 18 19 19 20 19 19 20 20 20 21 21 21 22 22 22 22 21 21 22 22 23 24 26 27 28 29 30 30 31 32 32 32 32 32 32 32
Wind_Direction
167 167 175 182 179 177 180 181 179 177 174 174 175 176 177 175 172 169 165 164 165 165 166 163 161 159 154 150 146 138 136 134 133 132 121 104 90 82 80 84 81 72 62 58 58 60 62 61 59 59 60 60 57 53 49 45 42 37 30 24 20 17 9 355 333 315 328 344 348 350 357 359 1 2 1 2 9 15 17 9 358 352 350 352 351
166 168 181 186 180 177 178 176 173 171 170 170 171 171 170 169 169 167 164 163 165 166 165 163 163 164 158 153 152 148 144 141 136 130 118 106 101 97 95 94 86 78 72 63 59 62 66 65 63 63 62 61 58 54 50 46 44 40 36 32 23 19 17 5 352 336 333 342 350 354 0 3 2 3 3 4 9 16 18 11 8 7 4 4 4
186 185 186 186 181 176 174 171 169 168 167 167 166 165 165 166 167 166 164 162 162 164 167 167 166 162 155 149 149 147 143 143 141 132 120 113 108 105 102 97 90 86 80 68 61 64 69 67 65 63 63 61 58 53 49 45 44 42 38 34 27 20 20 15 7 354 338 341 351 355 357 1 4 3 3 7 14 20 16 7 9 15 14 11 13
185 183 182 182 179 173 168 167 167 166 165 164 163 163 163 164 165 166 164 161 161 164 166 169 167 162 158 153 151 152 149 147 143 132 124 117 111 108 104 99 95 92 86 77 70 69 71 69 65 63 61 60 56 52 49 45 42 41 36 31 25 18 19 23 20 10 352 346 351 356 357 359 5 6 6 9 15 20 21 11 7 13 17 16 15
181 181 182 177 172 169 166 165 165 164 163 163 163 164 163 163 163 164 163 161 163 166 168 170 169 166 166 165 159 156 156 151 139 131 126 116 107 107 106 103 103 100 96 91 83 76 73 70 65 61 57 55 52 47 45 43 40 39 36 32 27 23 20 22 20 15 7 358 352 355 0 2 6 10 10 9 9 11 17 20 14 12 15 16 17
175 176 177 171 169 170 166 164 165 164 163 163 163 164 163 162 162 163 165 166 166 169 172 171 169 168 169 169 162 157 157 152 141 134 128 117 108 110 110 108 106 107 110 105 91 81 77 71 64 59 54 50 47 42 40 38 37 35 34 31 30 27 21 18 16 15 14 7 357 357 3 4 5 7 9 9 9 8 8 11 17 20 16 15 18
168 169 171 169 167 167 166 166 165 164 163 163 163 162 162 162 163 163 165 168 170 173 172 168 166 169 170 164 159 157 155 150 145 140 133 123 118 118 117 116 113 108 106 104 97 88 81 73 65 60 54 48 44 39 36 34 33 33 31 29 29 27 21 17 17 18 14 10 5 2 2 3 5 5 4 8 14 15 11 6 9 18 22 19 19
165 166 168 168 166 165 166 166 164 163 163 162 161 161 162 163 163 160 163 170 173 171 169 167 169 171 168 161 157 158 156 150 149 148 143 137 133 129 128 130 126 109 90 86 91 94 92 82 70 63 57 52 46 42 37 33 31 30 28 27 28 28 24 18 19 19 14 11 8 5 4 4 5 5 5 10 14 13 12 9 5 10 20 26 24
167 166 167 167 166 165 164 163 162 162 161 160 161 161 162 161 158 160 169 173 170 167 169 176 178 170 163 159 158 158 156 152 153 157 156 152 147 142 143 142 133 111 87 74 72 81 99 97 79 67 62 58 52 47 42 36 32 30 27 25 26 29 28 24 22 18 13 12 9 6 6 7 5 4 6 12 13 6 5 11 10 7 12 22 26
167 166 165 165 165 164 162 161 161 160 160 160 161 161 161 159 161 168 172 168 167 172 178 178 173 166 161 159 160 158 155 155 158 168 174 171 163 157 153 148 137 114 91 74 53 55 84 95 82 66 65 64 58 50 44 39 34 31 28 25 25 28 30 29 25 20 16 14 10 4 4 4 4 4 5 6 9 8 9 12 10 8 11 14 14
166 166 165 164 163 162 160 159 158 159 160 160 161 161 161 161 166 169 166 166 173 179 174 164 163 163 161 161 161 156 153 154 154 164 178 185 184 175 159 148 139 117 95 73 47 67 90 91 79 62 63 71 62 51 45 40 34 30 29 29 29 30 32 32 29 25 20 16 13 9 4 359 359 3 5 4 6 13 18 19 17 16 20 19 9
166 166 164 162 161 160 159 158 157 159 160 161 161 162 162 164 166 164 164 169 174 170 163 158 158 161 164 163 159 152 148 146 143 152 170 183 190 185 163 149 138 118 103 79 74 103 107 89 71 53 46 66 66 54 46 38 31 27 27 28 30 33 35 35 33 31 27 20 16 14 7 360 358 3 7 7 7 12 20 27 29 29 30 31 22
166 164 163 162 161 160 159 158 158 159 161 162 162 163 164 164 163 162 164 168 167 163 159 158 159 162 164 161 155 152 150 148 152 160 168 174 180 178 161 149 140 121 111 102 108 122 113 81 64 51 44 57 68 58 47 35 29 29 28 27 29 31 35 35 33 33 34 32 26 20 14 9 5 6 10 13 14 16 21 28 33 37 39 38 33
165 164 163 163 161 160 159 158 158 160 162 162 162 163 163 162 160 162 165 164 162 161 160 161 162 163 163 158 153 151 147 146 158 167 166 166 169 167 157 147 137 124 117 116 122 128 108 73 59 52 55 65 71 68 55 42 39 39 37 35 32 31 34 35 33 32 34 37 36 29 26 24 18 13 15 22 29 30 31 32 37 44 48 47 43
166 165 164 163 161 159 158 157 157 158 159 161 161 161 160 159 158 161 163 161 161 161 162 163 162 159 159 156 148 139 130 128 137 145 149 153 155 153 148 140 132 123 116 114 116 120 106 77 62 61 69 74 76 80 67 48 45 46 47 46 40 35 37 38 38 37 35 39 42 38 37 34 29 26 24 27 39 46 49 52 55 56 55 53 49
168 165 164 163 161 159 158 157 155 155 157 158 158 158 158 157 158 160 161 161 162 161 159 158 157 155 155 151 140 128 122 123 125 125 130 138 140 138 134 131 129 124 115 109 105 104 98 88 81 80 80 81 82 82 64 46 46 51 51 50 47 44 45 45 45 46 44 47 50 50 50 46 41 40 38 38 46 61 72 69 61 56 51 50 48
168 166 165 163 162 161 160 157 154 154 156 156 157 158 157 156 160 163 161 159 159 157 153 152 153 152 151 146 135 126 125 128 127 125 130 133 131 128 126 123 122 120 116 111 105 103 100 95 90 86 84 84 84 79 57 47 50 51 49 47 46 46 48 50 50 52 55 58 58 58 59 56 51 49 47 48 48 51 57 51 42 41 42 43 45
169 168 165 164 163 161 160 158 156 155 157 158 158 159 158 159 164 165 163 160 158 154 150 150 152 153 150 143 134 128 129 134 134 132 135 135 130 126 123 120 116 114 113 112 110 107 104 98 91 86 86 84 83 79 62 52 52 51 47 46 45 44 43 44 48 55 62 65 63 61 60 56 51 48 46 48 46 42 44 42 32 33 39 33 22
171 169 166 165 164 162 162 162 160 159 160 161 161 160 160 162 164 164 164 162 157 153 153 154 154 154 151 143 137 133 135 139 141 139 139 138 133 129 124 118 115 112 110 109 107 103 99 95 90 87 92 95 90 85 70 54 51 50 46 45 46 45 41 38 41 49 56 61 60 58 57 55 52 49 48 48 48 45 47 48 41 39 42 33 24
172 169 167 167 165 163 164 164 162 162 163 164 162 161 162 163 162 163 164 161 156 155 157 159 159 157 154 149 145 143 142 142 144 144 142 140 136 131 126 119 115 112 109 106 103 101 98 95 88 79 85 105 104 91 78 58 51 50 47 47 49 47 40 38 42 48 52 56 58 56 56 55 52 51 49 48 48 48 49 50 49 49 51 45 43
172 169 166 164 161 161 161 160 159 161 164 163 161 161 164 163 161 163 163 160 157 158 161 165 165 162 159 155 152 151 149 147 147 147 146 142 138 132 126 121 117 113 110 106 102 100 97 93 88 77 73 82 101 112 97 70 53 52 52 52 52 45 37 37 45 54 54 54 56 55 54 53 51 50 50 49 48 49 50 52 54 55 58 56 53
164 159 155 151 152 155 157 158 159 160 161 161 160 160 163 163 162 162 163 162 160 160 163 167 168 165 163 160 158 157 156 153 152 153 151 147 143 138 129 123 121 118 113 108 102 98 93 87 88 83 68 63 73 129 124 89 66 60 59 59 55 45 36 34 42 54 56 53 52 51 49 49 50 50 52 52 52 52 52 54 56 58 61 61 60
155 151 148 146 149 156 159 159 159 158 160 163 162 160 161 162 162 163 165 165 162 160 162 166 167 165 164 162 161 161 160 160 160 158 156 154 149 143 133 124 122 121 117 110 104 99 92 84 82 81 73 65 69 117 140 127 100 76 69 70 61 47 39 34 37 46 53 52 50 48 45 45 48 50 53 55 57 58 59 60 61 62 64 63 65
156 153 151 150 155 162 163 159 158 158 160 164 162 159 159 161 162 165 168 168 164 160 160 163 164 163 163 163 163 163 163 164 163 159 158 158 152 143 134 126 124 124 118 112 107 102 95 87 78 71 68 68 73 105 121 126 125 100 87 81 65 50 43 39 37 42 48 49 48 46 43 43 45 50 54 58 63 65 66 68 67 66 67 68 69
154 152 150 150 154 159 158 155 157 160 163 166 164 159 159 161 162 166 170 170 167 162 160 162 163 163 163 164 165 166 166 166 164 161 159 158 152 144 136 130 127 127 121 116 114 110 101 94 81 62 50 54 74 107 116 126 136 122 104 90 71 55 48 44 41 44 47 48 47 46 45 45 47 53 60 66 71 72 72 74 74 72 73 73 72
147 146 147 148 150 152 151 152 156 160 166 170 167 163 164 164 164 166 169 169 169 165 162 163 164 163 164 165 166 167 168 168 166 163 160 159 155 147 142 138 134 129 124 120 121 122 117 107 89 65 56 72 105 119 124 139 149 140 119 98 78 63 56 50 47 49 50 51 50 49 48 50 54 60 66 69 72 74 76 79 79 77 76 75 73
140 142 144 146 148 150 150 150 154 158 164 166 165 166 169 170 168 168 169 170 168 166 165 165 165 163 163 165 167 168 169 169 168 165 162 160 155 150 149 150 147 138 131 128 128 130 128 116 96 75 78 97 116 125 136 153 158 148 127 103 83 72 65 58 54 54 55 55 54 55 56 58 60 63 65 67 69 71 74 78 79 78 79 77 73
139 140 142 144 147 148 149 151 152 154 157 161 163 166 170 173 174 175 178 179 175 171 169 170 171 169 167 166 167 168 169 172 171 168 165 160 156 155 155 158 159 153 142 134 130 127 123 114 105 104 104 108 117 127 142 156 158 149 130 109 92 83 75 66 60 60 60 59 60 61 61 62 62 62 62 64 65 65 67 72 76 79 81 79 74
138 137 139 142 144 145 148 151 152 152 153 156 159 163 170 176 180 181 184 188 186 180 178 178 178 177 174 171 171 171 172 174 173 170 167 164 160 160 159 161 167 164 149 134 122 112 107 109 110 112 119 121 120 122 129 139 146 148 140 121 106 96 86 76 69 64 61 60 61 62 63 64 64 64 63 63 64 64 65 69 75 79 81 79 75
138 139 142 144 145 147 149 152 154 155 155 155 153 155 163 172 177 179 181 185 188 188 186 185 184 181 178 176 178 179 177 174 172 171 171 169 167 167 167 169 172 168 156 141 124 107 99 97 96 99 108 116 116 114 114 118 125 134 139 136 129 115 98 85 79 73 64 58 57 58 61 63 63 63 63 64 65 65 65 67 70 74 78 80 79
140 141 146 147 149 152 154 155 156 156 157 157 155 152 152 156 165 174 179 182 185 188 189 188 185 183 182 181 181 180 176 173 173 174 175 173 172 175 176 176 175 173 172 166 153 138 115 93 90 98 110 121 124 118 111 111 112 114 119 131 137 128 112 100 93 86 74 63 57 54 53 54 57 59 60 61 63 64 64 66 66 67 73 80 84
143 144 149 151 153 156 157 157 157 156 155 156 157 156 153 148 147 156 169 177 179 182 186 184 180 180 184 184 181 177 176 176 178 179 178 177 177 178 181 183 183 184 191 196 189 180 168 135 108 111 120 133 144 136 121 110 106 103 104 109 113 117 128 126 114 103 91 76 63 53 46 43 44 47 50 53 57 58 58 60 63 65 68 74 80
148 149 152 152 154 157 158 158 159 159 158 159 160 161 160 157 151 148 154 165 171 174 177 178 178 180 182 183 181 179 180 181 183 184 184 182 181 182 183 185 188 192 203 212 210 201 196 200 202 185 166 164 169 166 151 128 111 99 95 95 91 78 64 75 159 152 132 101 65 45 40 39 34 32 36 41 43 45 47 49 51 56 63 68 73
157 157 158 158 157 158 160 161 161 162 163 164 166 167 168 167 162 157 155 158 163 166 168 173 178 180 181 182 184 185 186 188 189 190 188 184 183 187 189 189 191 195 206 217 219 213 209 212 218 220 215 205 196 188 176 154 129 110 99 94 90 78 56 34 15 334 272 272 311 343 6 31 34 23 19 24 28 28 29 32 34 35 40 49 57
159 159 160 162 162 161 162 164 164 165 167 168 170 172 172 171 169 169 168 167 167 167 168 173 180 184 184 187 190 193 195 195 193 190 188 186 187 191 194 197 200 204 211 224 229 228 226 225 227 232 233 228 219 211 196 179 161 132 116 87 85 89 73 48 34 17 351 329 319 313 312 337 3 4 359 12 29 23 10 8 11 9 8 11 13
157 157 159 162 163 163 165 166 167 170 172 172 173 174 174 173 174 176 176 175 174 174 175 179 184 189 192 195 198 200 199 196 194 192 190 189 192 197 203 209 213 215 220 228 233 237 242 241 238 239 243 241 236 231 230 233 248 280 293 293 302 347 25 21 10 355 345 337 327 321 324 327 328 329 322 312 8 41 18 356 345 335 329 329 330
158 158 159 161 163 164 165 166 168 172 174 174 174 175 175 176 178 181 182 182 182 182 182 184 188 192 197 200 204 205 200 195 193 193 191 192 197 205 212 217 220 221 224 229 232 237 243 242 239 239 242 249 254 247 241 242 250 263 279 288 287 285 290 297 300 304 309 309 306 306 311 316 318 320 310 293 286 320 343 336 326 315 302 292 292
161 162 164 165 166 166 167 168 168 171 173 175 178 179 179 180 183 185 186 188 189 190 191 193 196 199 201 200 199 197 194 191 189 189 191 195 200 207 213 218 220 223 226 229 232 239 244 244 242 243 243 247 258 263 254 252 255 260 269 280 287 288 289 290 289 291 294 296 297 296 294 296 303 309 305 295 291 301 314 323 325 319 305 292 282
160 164 166 168 169 169 170 170 169 171 174 177 179 181 182 184 186 188 190 192 193 194 196 198 200 202 201 197 191 187 187 188 188 187 191 197 204 209 214 219 223 227 230 233 235 242 248 248 249 251 252 253 258 265 266 263 261 264 271 280 289 294 295 293 290 287 285 287 288 287 286 287 291 295 296 295 295 297 301 305 310 313 312 304 295
161 163 165 167 168 170 171 171 171 174 179 182 182 183 185 187 190 192 195 196 198 199 200 201 201 198 195 193 190 188 187 187 188 189 194 203 211 216 220 226 230 231 233 235 238 244 250 253 254 256 260 262 265 270 272 270 269 271 274 279 285 291 293 294 294 291 286 283 282 281 282 283 284 287 289 290 291 294 296 297 298 300 302 304 304
163 163 164 166 168 169 170 171 174 179 184 185 185 186 187 189 192 196 199 201 201 200 200 200 197 192 190 190 191 190 190 188 188 192 201 211 218 223 226 227 229 231 235 239 241 245 252 257 259 261 264 267 269 270 271 272 272 274 277 278 280 284 287 291 296 296 293 286 280 278 280 282 283 284 285 286 286 287 288 289 292 292 293 295 296
165 163 163 165 167 168 168 171 176 180 183 185 186 187 189 191 193 197 199 200 199 197 196 195 192 189 188 189 188 188 188 189 191 199 209 217 222 226 226 225 227 233 241 244 245 250 258 263 266 268 269 272 274 273 273 276 279 283 285 284 282 283 286 289 294 298 297 291 284 281 282 284 285 286 285 283 283 283 283 284 285 287 288 290 290
167 165 164 164 165 166 168 172 175 178 180 182 184 187 190 193 195 197 197 197 197 197 197 195 192 189 187 187 186 185 185 187 193 202 210 215 218 219 219 222 229 238 247 250 252 257 265 269 273 276 278 281 282 280 279 282 285 286 288 289 289 289 289 291 293 295 296 294 291 288 287 288 290 292 291 287 284 283 284 284 284 283 284 287 287
164 162 160 159 160 163 166 168 169 172 176 180 183 187 192 195 195 197 199 199 200 201 202 199 194 189 186 186 185 184 183 183 185 191 199 208 212 214 216 224 234 241 247 252 255 261 268 273 276 278 281 284 284 283 283 284 284 284 286 288 290 290 290 292 295 297 298 297 295 293 291 292 292 294 295 294 290 287 286 286 285 285 285 285 284
162 160 159 157 155 156 158 159 162 169 174 179 183 187 191 194 195 197 201 202 203 203 200 195 190 188 188 188 187 185 183 182 181 185 193 204 211 215 220 227 236 242 247 252 256 264 274 281 282 282 285 288 289 290 290 289 288 288 288 289 290 292 296 299 301 301 299 297 295 294 294 294 294 294 294 296 295 293 291 290 289 287 286 285 283
163 161 159 155 150 150 155 161 169 176 178 180 182 183 184 187 189 189 190 192 197 199 195 191 189 191 193 192 190 188 187 186 187 193 202 212 220 225 229 233 239 245 251 256 260 268 281 290 292 292 296 298 298 298 299 299 298 297 296 295 297 300 304 307 308 306 303 300 297 297 296 296 296 296 295 296 297 297 297 296 295 292 290 287 285
161 156 152 148 147 153 162 166 167 169 172 174 176 178 178 179 178 174 173 176 178 183 189 193 193 195 197 197 196 194 195 196 200 208 222 233 237 240 243 245 249 254 260 264 267 273 283 292 295 298 302 303 302 302 302 302 302 302 301 302 302 303 305 307 306 304 303 301 298 297 297 297 297 296 294 294 294 293 293 295 295 294 292 290 288
153 147 146 149 153 160 163 161 159 163 167 169 171 175 175 173 169 166 163 160 156 161 176 189 194 197 201 203 202 201 203 208 214 221 233 243 245 247 251 256 261 266 269 272 274 276 281 285 288 292 295 296 296 297 297 296 297 297 297 298 299 299 299 300 298 297 297 296 294 293 293 293 293 293 292 290 289 288 288 288 288 288 288 287 286
147 146 148 152 157 160 159 155 157 163 167 168 172 176 178 174 166 157 149 147 148 154 164 175 184 192 200 205 206 208 212 218 223 228 237 246 250 253 258 265 270 272 274 277 279 280 281 283 285 287 290 291 291 292 292 292 292 292 291 291 291 290 289 288 288 288 288 288 288 288 288 287 287 287 287 287 287 286 285 284 284 284 284 283 283
143 145 148 153 158 161 161 160 164 169 171 171 176 181 182 177 166 159 156 158 158 159 163 169 179 191 203 209 213 216 220 225 229 236 247 257 261 263 267 272 275 276 277 280 283 286 288 289 289 289 289 289 289 289 289 289 289 289 289 289 289 288 288 287 286 285 285 283 283 283 283 283 284 284 283 284 285 285 285 285 284 284 283 282 282
141 141 147 156 165 168 169 173 177 176 173 171 172 172 166 160 159 165 172 176 176 177 182 190 198 207 215 221 225 229 234 239 244 250 257 260 261 263 269 276 284 288 289 289 291 294 294 293 290 288 287 287 287 288 289 290 291 292 292 293 294 294 295 296 295 295 294 291 289 287 286 285 285 286 285 286 287 288 289 289 289 288 286 285 284